Time,TemperatureF,DewpointF,PressureIn,WindDirection,WindDirectionDegrees,WindSpeedMPH,WindSpeedGustMPH,Humidity,HourlyPrecipIn,Conditions,Clouds,dailyrainin,SoftwareType,DateUTC
2013-04-29 16:43:00,69.7,32.3,30.20,West,275,3.0,25.0,25,0.00,,,0.00,Wunderground v.1.15,2013-04-29 20:43:00,
2013-04-29 16:44:00,69.7,33.3,30.20,WSW,251,3.0,25.0,26,0.00,,,0.00,Wunderground v.1.15,2013-04-29 20:44:00,
2013-04-29 16:46:00,69.3,31.9,30.20,West,281,4.0,25.0,25,0.00,,,0.00,Wunderground v.1.15,2013-04-29 20:46:00,
2013-04-29 16:49:00,68.5,32.2,30.20,West,269,6.0,25.0,26,0.00,,,0.00,Wunderground v.1.15,2013-04-29 20:49:00,
2013-04-29 16:50:00,68.3,32.1,30.20,West,274,6.0,25.0,26,0.00,,,0.00,Wunderground v.1.15,2013-04-29 20:50:00,
2013-04-29 16:51:00,68.2,32.0,30.20,NW,313,7.0,25.0,26,0.00,,,0.00,Wunderground v.1.15,2013-04-29 20:51:00,
2013-04-29 16:52:00,68.1,31.9,30.20,WNW,286,7.0,25.0,26,0.00,,,0.00,Wunderground v.1.15,2013-04-29 20:52:00,
2013-04-29 16:53:00,67.9,31.7,30.20,West,273,8.0,25.0,26,0.00,,,0.00,Wunderground v.1.15,2013-04-29 20:53:00,
2013-04-29 16:55:00,67.7,32.5,30.20,West,261,8.0,25.0,27,0.00,,,0.00,Wunderground v.1.15,2013-04-29 20:55:00,
2013-04-29 16:59:00,67.7,32.5,30.20,West,265,8.0,25.0,27,0.00,,,0.00,Wunderground v.1.15,2013-04-29 20:59:00,
2013-04-29 17:00:00,67.6,32.4,30.20,SW,232,8.0,8.0,27,0.00,,,0.00,Wunderground v.1.15,2013-04-29 21:00:00,
2013-04-29 17:01:00,67.7,32.5,30.20,WSW,255,7.0,11.0,27,0.00,,,0.00,Wunderground v.1.15,2013-04-29 21:01:00,
2013-04-29 17:02:00,67.7,32.5,30.20,West,260,7.0,25.0,27,0.00,,,0.00,Wunderground v.1.15,2013-04-29 21:02:00,
2013-04-29 17:04:00,67.9,32.7,30.20,West,259,7.0,25.0,27,0.00,,,0.00,Wunderground v.1.15,2013-04-29 21:04:00,
2013-04-29 17:05:00,67.9,31.7,30.20,West,274,7.0,25.0,26,0.00,,,0.00,Wunderground v.1.15,2013-04-29 21:05:00,
2013-04-29 17:07:00,67.7,32.5,30.20,West,281,7.0,25.0,27,0.00,,,0.00,Wunderground v.1.15,2013-04-29 21:07:00,
2013-04-29 17:08:00,67.7,31.6,30.20,WNW,285,7.0,25.0,26,0.00,,,0.00,Wunderground v.1.15,2013-04-29 21:08:00,
2013-04-29 17:09:00,67.7,31.6,30.20,West,265,7.0,25.0,26,0.00,,,0.00,Wunderground v.1.15,2013-04-29 21:09:00,
2013-04-29 17:11:00,67.6,31.5,30.20,WNW,282,7.0,25.0,26,0.00,,,0.00,Wunderground v.1.15,2013-04-29 21:11:00,
2013-04-29 17:12:00,67.6,31.5,30.20,WSW,246,7.0,25.0,26,0.00,,,0.00,Wunderground v.1.15,2013-04-29 21:12:00,
2013-04-29 17:14:00,67.5,31.4,30.21,West,261,8.0,25.0,26,0.00,,,0.00,Wunderground v.1.15,2013-04-29 21:14:00,
2013-04-29 17:16:00,67.3,31.2,30.21,SW,236,8.0,25.0,26,0.00,,,0.00,Wunderground v.1.15,2013-04-29 21:16:00,
2013-04-29 17:18:00,67.4,31.3,30.21,WNW,282,7.0,25.0,26,0.00,,,0.00,Wunderground v.1.15,2013-04-29 21:18:00,
2013-04-29 17:20:00,67.3,31.2,30.21,West,270,7.0,25.0,26,0.00,,,0.00,Wunderground v.1.15,2013-04-29 21:20:00,
2013-04-29 17:22:00,67.4,31.3,30.21,West,277,7.0,25.0,26,0.00,,,0.00,Wunderground v.1.15,2013-04-29 21:22:00,
2013-04-29 17:25:00,67.5,31.4,30.21,WNW,290,6.0,25.0,26,0.00,,,0.00,Wunderground v.1.15,2013-04-29 21:25:00,
2013-04-29 17:26:00,67.6,31.5,30.21,WSW,251,6.0,25.0,26,0.00,,,0.00,Wunderground v.1.15,2013-04-29 21:26:00,
2013-04-29 17:27:00,67.7,32.5,30.21,SW,217,6.0,25.0,27,0.00,,,0.00,Wunderground v.1.15,2013-04-29 21:27:00,
2013-04-29 17:31:00,68.0,29.8,30.21,WSW,243,5.0,25.0,24,0.00,,,0.00,Wunderground v.1.15,2013-04-29 21:31:00,
2013-04-29 17:32:00,67.7,30.6,30.21,WNW,288,5.0,25.0,25,0.00,,,0.00,Wunderground v.1.15,2013-04-29 21:32:00,
2013-04-29 17:34:00,67.4,30.3,30.21,West,269,6.0,25.0,25,0.00,,,0.00,Wunderground v.1.15,2013-04-29 21:34:00,
2013-04-29 17:35:00,67.2,30.2,30.21,West,265,6.0,25.0,25,0.00,,,0.00,Wunderground v.1.15,2013-04-29 21:35:00,
2013-04-29 17:38:00,66.7,29.7,30.21,WNW,284,7.0,25.0,25,0.00,,,0.00,Wunderground v.1.15,2013-04-29 21:38:00,
2013-04-29 17:39:00,66.6,29.6,30.21,WSW,239,8.0,25.0,25,0.00,,,0.00,Wunderground v.1.15,2013-04-29 21:39:00,
2013-04-29 17:40:00,66.6,29.6,30.21,WNW,300,8.0,8.0,25,0.00,,,0.00,Wunderground v.1.15,2013-04-29 21:40:00,
2013-04-29 17:41:00,66.6,29.6,30.21,WNW,285,8.0,25.0,25,0.00,,,0.00,Wunderground v.1.15,2013-04-29 21:41:00,
2013-04-29 17:42:00,66.6,28.6,30.21,SW,232,7.0,25.0,24,0.00,,,0.00,Wunderground v.1.15,2013-04-29 21:42:00,
2013-04-29 17:47:00,66.7,28.7,30.21,WSW,250,6.0,25.0,24,0.00,,,0.00,Wunderground v.1.15,2013-04-29 21:47:00,
2013-04-29 17:48:00,66.6,28.6,30.21,West,261,6.0,25.0,24,0.00,,,0.00,Wunderground v.1.15,2013-04-29 21:48:00,
2013-04-29 17:53:00,66.6,27.6,30.21,West,273,5.0,25.0,23,0.00,,,0.00,Wunderground v.1.15,2013-04-29 21:53:00,
2013-04-29 17:54:00,66.5,27.5,30.22,WSW,243,6.0,25.0,23,0.00,,,0.00,Wunderground v.1.15,2013-04-29 21:54:00,
2013-04-29 17:58:00,66.0,27.1,30.21,SW,232,7.0,25.0,23,0.00,,,0.00,Wunderground v.1.15,2013-04-29 21:58:00,
2013-04-29 18:00:00,65.8,26.9,30.21,West,259,7.0,7.0,23,0.00,,,0.00,Wunderground v.1.15,2013-04-29 22:00:00,
2013-04-29 18:01:00,65.8,26.9,30.21,NW,314,8.0,8.0,23,0.00,,,0.00,Wunderground v.1.15,2013-04-29 22:01:00,
2013-04-29 18:03:00,65.7,26.9,30.22,WNW,292,8.0,25.0,23,0.00,,,0.00,Wunderground v.1.15,2013-04-29 22:03:00,
2013-04-29 18:04:00,65.6,26.8,30.22,West,269,8.0,25.0,23,0.00,,,0.00,Wunderground v.1.15,2013-04-29 22:04:00,
2013-04-29 18:06:00,65.5,26.7,30.22,West,259,8.0,25.0,23,0.00,,,0.00,Wunderground v.1.15,2013-04-29 22:06:00,
2013-04-29 18:07:00,65.5,26.7,30.22,WSW,251,8.0,25.0,23,0.00,,,0.00,Wunderground v.1.15,2013-04-29 22:07:00,
2013-04-29 18:09:00,65.6,26.8,30.22,WNW,283,7.0,25.0,23,0.00,,,0.00,Wunderground v.1.15,2013-04-29 22:09:00,
2013-04-29 18:13:00,65.7,27.9,30.22,WNW,294,6.0,25.0,24,0.00,,,0.00,Wunderground v.1.15,2013-04-29 22:13:00,
2013-04-29 18:14:00,65.7,26.9,30.22,WSW,244,6.0,25.0,23,0.00,,,0.00,Wunderground v.1.15,2013-04-29 22:14:00,
2013-04-29 18:16:00,65.8,26.9,30.22,WNW,291,5.0,25.0,23,0.00,,,0.00,Wunderground v.1.15,2013-04-29 22:16:00,
2013-04-29 18:18:00,65.9,27.0,30.22,NW,306,5.0,25.0,23,0.00,,,0.00,Wunderground v.1.15,2013-04-29 22:18:00,
2013-04-29 18:19:00,65.8,26.9,30.22,WNW,286,5.0,25.0,23,0.00,,,0.00,Wunderground v.1.15,2013-04-29 22:19:00,
2013-04-29 18:20:00,65.8,26.9,30.22,West,281,5.0,5.0,23,0.00,,,0.00,Wunderground v.1.15,2013-04-29 22:20:00,
2013-04-29 18:22:00,65.8,26.9,30.22,WSW,239,5.0,25.0,23,0.00,,,0.00,Wunderground v.1.15,2013-04-29 22:22:00,
2013-04-29 18:24:00,65.8,28.0,30.22,WNW,299,4.0,25.0,24,0.00,,,0.00,Wunderground v.1.15,2013-04-29 22:24:00,
2013-04-29 18:25:00,65.8,26.9,30.22,WNW,293,4.0,25.0,23,0.00,,,0.00,Wunderground v.1.15,2013-04-29 22:25:00,
2013-04-29 18:27:00,65.7,26.9,30.22,WNW,286,4.0,25.0,23,0.00,,,0.00,Wunderground v.1.15,2013-04-29 22:27:00,
2013-04-29 18:31:00,65.3,25.4,30.22,WSW,246,4.0,25.0,22,0.00,,,0.00,Wunderground v.1.15,2013-04-29 22:31:00,
2013-04-29 18:32:00,65.1,25.3,30.22,WNW,290,4.0,25.0,22,0.00,,,0.00,Wunderground v.1.15,2013-04-29 22:32:00,
2013-04-29 18:34:00,64.8,25.0,30.22,WSW,254,5.0,25.0,22,0.00,,,0.00,Wunderground v.1.15,2013-04-29 22:34:00,
2013-04-29 18:36:00,64.5,24.8,30.22,WNW,303,6.0,25.0,22,0.00,,,0.00,Wunderground v.1.15,2013-04-29 22:36:00,
2013-04-29 18:37:00,64.5,24.8,30.23,West,269,6.0,25.0,22,0.00,,,0.00,Wunderground v.1.15,2013-04-29 22:37:00,
2013-04-29 18:38:00,64.4,24.7,30.23,WSW,245,7.0,25.0,22,0.00,,,0.00,Wunderground v.1.15,2013-04-29 22:38:00,
2013-04-29 18:41:00,64.1,24.4,30.23,West,271,7.0,25.0,22,0.00,,,0.00,Wunderground v.1.15,2013-04-29 22:41:00,
2013-04-29 18:43:00,64.0,24.4,30.23,WSW,257,8.0,25.0,22,0.00,,,0.00,Wunderground v.1.15,2013-04-29 22:43:00,
2013-04-29 18:44:00,63.9,24.3,30.23,West,271,8.0,25.0,22,0.00,,,0.00,Wunderground v.1.15,2013-04-29 22:44:00,
2013-04-29 18:48:00,64.0,24.4,30.23,NW,309,7.0,25.0,22,0.00,,,0.00,Wunderground v.1.15,2013-04-29 22:48:00,
2013-04-29 18:49:00,63.9,24.3,30.23,West,275,7.0,25.0,22,0.00,,,0.00,Wunderground v.1.15,2013-04-29 22:49:00,
2013-04-29 18:50:00,63.8,24.2,30.23,West,261,7.0,25.0,22,0.00,,,0.00,Wunderground v.1.15,2013-04-29 22:50:00,
2013-04-29 18:56:00,63.5,22.8,30.23,SW,234,7.0,25.0,21,0.00,,,0.00,Wunderground v.1.15,2013-04-29 22:56:00,
2013-04-29 18:57:00,63.5,22.8,30.23,WNW,294,7.0,25.0,21,0.00,,,0.00,Wunderground v.1.15,2013-04-29 22:57:00,
2013-04-29 18:59:00,63.3,23.8,30.23,WSW,252,6.0,25.0,22,0.00,,,0.00,Wunderground v.1.15,2013-04-29 22:59:00,
2013-04-29 19:00:00,63.3,23.8,30.23,WSW,252,6.0,6.0,22,0.00,,,0.00,Wunderground v.1.15,2013-04-29 23:00:00,
2013-04-29 19:05:00,63.1,22.5,30.23,WNW,285,5.0,25.0,21,0.00,,,0.00,Wunderground v.1.15,2013-04-29 23:05:00,
2013-04-29 19:07:00,62.9,21.2,30.23,NW,304,5.0,25.0,20,0.00,,,0.00,Wunderground v.1.15,2013-04-29 23:07:00,
2013-04-29 19:10:00,62.5,20.8,30.23,SW,229,5.0,25.0,20,0.00,,,0.00,Wunderground v.1.15,2013-04-29 23:10:00,
2013-04-29 19:11:00,62.5,20.8,30.23,West,271,6.0,25.0,20,0.00,,,0.00,Wunderground v.1.15,2013-04-29 23:11:00,
2013-04-29 19:12:00,62.4,20.8,30.23,WSW,252,6.0,25.0,20,0.00,,,0.00,Wunderground v.1.15,2013-04-29 23:12:00,
2013-04-29 19:16:00,62.2,20.6,30.24,WNW,298,5.0,25.0,20,0.00,,,0.00,Wunderground v.1.15,2013-04-29 23:16:00,
2013-04-29 19:17:00,62.1,20.5,30.24,WSW,243,4.0,25.0,20,0.00,,,0.00,Wunderground v.1.15,2013-04-29 23:17:00,
2013-04-29 19:19:00,61.9,19.1,30.24,WSW,244,5.0,25.0,19,0.00,,,0.00,Wunderground v.1.15,2013-04-29 23:19:00,
2013-04-29 19:20:00,61.9,17.9,30.24,SSW,206,5.0,25.0,18,0.00,,,0.00,Wunderground v.1.15,2013-04-29 23:20:00,
2013-04-29 19:21:00,61.8,17.8,30.24,WNW,296,5.0,25.0,18,0.00,,,0.00,Wunderground v.1.15,2013-04-29 23:21:00,
2013-04-29 19:23:00,61.6,17.6,30.24,West,275,5.0,25.0,18,0.00,,,0.00,Wunderground v.1.15,2013-04-29 23:23:00,
2013-04-29 19:25:00,61.4,17.5,30.24,WNW,292,5.0,25.0,18,0.00,,,0.00,Wunderground v.1.15,2013-04-29 23:25:00,
2013-04-29 19:26:00,61.4,16.1,30.24,WNW,282,5.0,25.0,17,0.00,,,0.00,Wunderground v.1.15,2013-04-29 23:26:00,
2013-04-29 19:27:00,61.4,17.5,30.24,WSW,246,5.0,25.0,18,0.00,,,0.00,Wunderground v.1.15,2013-04-29 23:27:00,
2013-04-29 19:32:00,61.2,16.0,30.24,West,268,3.0,25.0,17,0.00,,,0.00,Wunderground v.1.15,2013-04-29 23:32:00,
2013-04-29 19:35:00,61.2,14.6,30.24,WNW,302,2.0,25.0,16,0.00,,,0.00,Wunderground v.1.15,2013-04-29 23:35:00,
2013-04-29 19:36:00,61.1,14.5,30.24,WNW,284,2.0,25.0,16,0.00,,,0.00,Wunderground v.1.15,2013-04-29 23:36:00,
2013-04-29 19:37:00,61.1,13.0,30.24,West,271,2.0,25.0,15,0.00,,,0.00,Wunderground v.1.15,2013-04-29 23:37:00,
2013-04-29 19:40:00,60.9,12.9,30.24,West,264,2.0,25.0,15,0.00,,,0.00,Wunderground v.1.15,2013-04-29 23:40:00,
2013-04-29 19:41:00,60.9,11.3,30.24,SW,236,2.0,25.0,14,0.00,,,0.00,Wunderground v.1.15,2013-04-29 23:41:00,
2013-04-29 19:42:00,60.9,11.3,30.24,WSW,244,3.0,25.0,14,0.00,,,0.00,Wunderground v.1.15,2013-04-29 23:42:00,
2013-04-29 19:46:00,60.7,11.1,30.24,WSW,242,3.0,25.0,14,0.00,,,0.00,Wunderground v.1.15,2013-04-29 23:46:00,
2013-04-29 19:48:00,60.5,11.0,30.24,West,262,3.0,25.0,14,0.00,,,0.00,Wunderground v.1.15,2013-04-29 23:48:00,
2013-04-29 19:50:00,60.4,12.5,30.24,WNW,284,3.0,25.0,15,0.00,,,0.00,Wunderground v.1.15,2013-04-29 23:50:00,
2013-04-29 19:54:00,60.3,13.9,30.24,West,271,5.0,25.0,16,0.00,,,0.00,Wunderground v.1.15,2013-04-29 23:54:00,
2013-04-29 19:55:00,60.2,13.8,30.24,West,265,5.0,25.0,16,0.00,,,0.00,Wunderground v.1.15,2013-04-29 23:55:00,
2013-04-29 19:56:00,60.1,13.7,30.24,West,268,5.0,25.0,16,0.00,,,0.00,Wunderground v.1.15,2013-04-29 23:56:00,
2013-04-29 19:57:00,60.0,15.0,30.24,WSW,258,5.0,25.0,17,0.00,,,0.00,Wunderground v.1.15,2013-04-29 23:57:00,
2013-04-29 20:00:00,59.9,16.2,30.24,WSW,250,4.0,4.0,18,0.00,,,0.00,Wunderground v.1.15,2013-04-30 00:00:00,
2013-04-29 20:01:00,59.8,14.8,30.24,WSW,254,4.0,25.0,17,0.00,,,0.00,Wunderground v.1.15,2013-04-30 00:01:00,
2013-04-29 20:02:00,59.8,14.8,30.24,West,276,4.0,25.0,17,0.00,,,0.00,Wunderground v.1.15,2013-04-30 00:02:00,
2013-04-29 20:04:00,59.8,16.1,30.24,West,276,3.0,25.0,18,0.00,,,0.00,Wunderground v.1.15,2013-04-30 00:04:00,
2013-04-29 20:06:00,59.7,16.1,30.24,West,273,2.0,25.0,18,0.00,,,0.00,Wunderground v.1.15,2013-04-30 00:06:00,
2013-04-29 20:07:00,59.6,16.0,30.24,WNW,295,2.0,25.0,18,0.00,,,0.00,Wunderground v.1.15,2013-04-30 00:07:00,
2013-04-29 20:10:00,59.5,17.1,30.24,WSW,254,2.0,25.0,19,0.00,,,0.00,Wunderground v.1.15,2013-04-30 00:10:00,
2013-04-29 20:12:00,59.4,17.1,30.24,WNW,288,2.0,25.0,19,0.00,,,0.00,Wunderground v.1.15,2013-04-30 00:12:00,
2013-04-29 20:13:00,59.3,17.0,30.24,West,275,3.0,25.0,19,0.00,,,0.00,Wunderground v.1.15,2013-04-30 00:13:00,
2013-04-29 20:14:00,59.2,16.9,30.24,WSW,240,3.0,25.0,19,0.00,,,0.00,Wunderground v.1.15,2013-04-30 00:14:00,
2013-04-29 20:17:00,59.0,16.7,30.24,WSW,248,3.0,25.0,19,0.00,,,0.00,Wunderground v.1.15,2013-04-30 00:17:00,
2013-04-29 20:22:00,58.8,16.6,30.25,West,279,3.0,25.0,19,0.00,,,0.00,Wunderground v.1.15,2013-04-30 00:22:00,
2013-04-29 20:23:00,58.7,16.5,30.25,West,267,3.0,25.0,19,0.00,,,0.00,Wunderground v.1.15,2013-04-30 00:23:00,
2013-04-29 20:27:00,58.6,16.4,30.25,West,281,4.0,25.0,19,0.00,,,0.00,Wunderground v.1.15,2013-04-30 00:27:00,
2013-04-29 20:29:00,58.4,17.4,30.25,WNW,290,5.0,25.0,20,0.00,,,0.00,Wunderground v.1.15,2013-04-30 00:29:00,
2013-04-29 20:31:00,58.4,17.4,30.25,WNW,286,5.0,8.0,20,0.00,,,0.00,Wunderground v.1.15,2013-04-30 00:31:00,
2013-04-29 20:32:00,58.3,17.3,30.25,WNW,289,5.0,25.0,20,0.00,,,0.00,Wunderground v.1.15,2013-04-30 00:32:00,
2013-04-29 20:33:00,58.3,17.3,30.25,WSW,243,5.0,25.0,20,0.00,,,0.00,Wunderground v.1.15,2013-04-30 00:33:00,
2013-04-29 20:34:00,58.3,17.3,30.25,WSW,244,5.0,25.0,20,0.00,,,0.00,Wunderground v.1.15,2013-04-30 00:34:00,
2013-04-29 20:40:00,58.2,19.5,30.25,West,262,4.0,4.0,22,0.00,,,0.00,Wunderground v.1.15,2013-04-30 00:40:00,
2013-04-29 20:41:00,58.2,18.4,30.25,WSW,257,4.0,25.0,21,0.00,,,0.00,Wunderground v.1.15,2013-04-30 00:41:00,
2013-04-29 20:44:00,58.1,18.3,30.26,WSW,249,3.0,25.0,21,0.00,,,0.00,Wunderground v.1.15,2013-04-30 00:44:00,
2013-04-29 20:48:00,58.0,20.4,30.26,WSW,247,2.0,25.0,23,0.00,,,0.00,Wunderground v.1.15,2013-04-30 00:48:00,
2013-04-29 20:49:00,58.0,19.3,30.26,WSW,244,2.0,25.0,22,0.00,,,0.00,Wunderground v.1.15,2013-04-30 00:49:00,
2013-04-29 20:50:00,58.0,18.2,30.26,West,272,2.0,25.0,21,0.00,,,0.00,Wunderground v.1.15,2013-04-30 00:50:00,
2013-04-29 20:52:00,57.9,18.1,30.26,West,263,2.0,25.0,21,0.00,,,0.00,Wunderground v.1.15,2013-04-30 00:52:00,
2013-04-29 20:53:00,57.9,18.1,30.26,WSW,248,2.0,25.0,21,0.00,,,0.00,Wunderground v.1.15,2013-04-30 00:53:00,
2013-04-29 20:58:00,57.7,19.1,30.26,WSW,249,2.0,25.0,22,0.00,,,0.00,Wunderground v.1.15,2013-04-30 00:58:00,
2013-04-29 20:59:00,57.7,19.1,30.26,WSW,257,2.0,25.0,22,0.00,,,0.00,Wunderground v.1.15,2013-04-30 00:59:00,
2013-04-29 21:01:00,57.6,20.0,30.26,West,263,2.0,25.0,23,0.00,,,0.00,Wunderground v.1.15,2013-04-30 01:01:00,
2013-04-29 21:04:00,57.6,20.0,30.26,WSW,257,2.0,25.0,23,0.00,,,0.00,Wunderground v.1.15,2013-04-30 01:04:00,
2013-04-29 21:05:00,57.5,19.9,30.26,WSW,257,2.0,25.0,23,0.00,,,0.00,Wunderground v.1.15,2013-04-30 01:05:00,
2013-04-29 21:07:00,57.5,19.9,30.26,WNW,288,2.0,25.0,23,0.00,,,0.00,Wunderground v.1.15,2013-04-30 01:07:00,
2013-04-29 21:08:00,57.5,20.9,30.26,SW,225,2.0,25.0,24,0.00,,,0.00,Wunderground v.1.15,2013-04-30 01:08:00,
2013-04-29 21:10:00,57.4,19.9,30.26,WSW,240,2.0,25.0,23,0.00,,,0.00,Wunderground v.1.15,2013-04-30 01:10:00,
2013-04-29 21:11:00,57.3,21.7,30.26,West,267,2.0,25.0,25,0.00,,,0.00,Wunderground v.1.15,2013-04-30 01:11:00,
2013-04-29 21:14:00,57.2,21.6,30.26,West,270,2.0,25.0,25,0.00,,,0.00,Wunderground v.1.15,2013-04-30 01:14:00,
2013-04-29 21:15:00,57.2,20.7,30.26,West,270,2.0,25.0,24,0.00,,,0.00,Wunderground v.1.15,2013-04-30 01:15:00,
2013-04-29 21:19:00,57.0,21.5,30.26,WSW,238,3.0,25.0,25,0.00,,,0.00,Wunderground v.1.15,2013-04-30 01:19:00,
2013-04-29 21:20:00,56.9,21.4,30.26,West,273,3.0,3.0,25,0.00,,,0.00,Wunderground v.1.15,2013-04-30 01:20:00,
2013-04-29 21:23:00,56.8,22.2,30.27,West,280,3.0,25.0,26,0.00,,,0.00,Wunderground v.1.15,2013-04-30 01:23:00,
2013-04-29 21:25:00,56.8,23.1,30.27,West,265,3.0,25.0,27,0.00,,,0.00,Wunderground v.1.15,2013-04-30 01:25:00,
2013-04-29 21:26:00,56.8,23.1,30.27,West,259,3.0,25.0,27,0.00,,,0.00,Wunderground v.1.15,2013-04-30 01:26:00,
2013-04-29 21:27:00,56.7,23.0,30.27,WSW,258,3.0,25.0,27,0.00,,,0.00,Wunderground v.1.15,2013-04-30 01:27:00,
2013-04-29 21:29:00,56.6,23.8,30.27,West,275,2.0,25.0,28,0.00,,,0.00,Wunderground v.1.15,2013-04-30 01:29:00,
2013-04-29 21:30:00,56.6,23.8,30.27,West,269,2.0,25.0,28,0.00,,,0.00,Wunderground v.1.15,2013-04-30 01:30:00,
2013-04-29 21:32:00,56.5,23.7,30.27,West,272,3.0,25.0,28,0.00,,,0.00,Wunderground v.1.15,2013-04-30 01:32:00,
2013-04-29 21:33:00,56.4,23.7,30.27,West,280,3.0,25.0,28,0.00,,,0.00,Wunderground v.1.15,2013-04-30 01:33:00,
2013-04-29 21:37:00,56.2,24.3,30.26,WSW,256,4.0,25.0,29,0.00,,,0.00,Wunderground v.1.15,2013-04-30 01:37:00,
2013-04-29 21:38:00,56.2,24.3,30.27,WNW,290,4.0,25.0,29,0.00,,,0.00,Wunderground v.1.15,2013-04-30 01:38:00,
2013-04-29 21:39:00,56.1,24.2,30.27,WNW,288,5.0,25.0,29,0.00,,,0.00,Wunderground v.1.15,2013-04-30 01:39:00,
2013-04-29 21:41:00,56.0,25.0,30.26,West,279,5.0,25.0,30,0.00,,,0.00,Wunderground v.1.15,2013-04-30 01:41:00,
2013-04-29 21:42:00,55.9,24.9,30.26,WNW,288,5.0,25.0,30,0.00,,,0.00,Wunderground v.1.15,2013-04-30 01:42:00,
2013-04-29 21:44:00,55.8,24.8,30.26,West,263,5.0,25.0,30,0.00,,,0.00,Wunderground v.1.15,2013-04-30 01:44:00,
2013-04-29 21:45:00,55.8,24.8,30.26,West,259,5.0,25.0,30,0.00,,,0.00,Wunderground v.1.15,2013-04-30 01:45:00,
2013-04-29 21:48:00,55.7,25.5,30.26,WSW,257,5.0,25.0,31,0.00,,,0.00,Wunderground v.1.15,2013-04-30 01:48:00,
2013-04-29 21:49:00,55.6,25.4,30.26,WSW,238,5.0,25.0,31,0.00,,,0.00,Wunderground v.1.15,2013-04-30 01:49:00,
2013-04-29 21:50:00,55.6,25.4,30.26,SW,231,4.0,4.0,31,0.00,,,0.00,Wunderground v.1.15,2013-04-30 01:50:00,
2013-04-29 21:51:00,55.5,25.3,30.26,WNW,286,4.0,5.0,31,0.00,,,0.00,Wunderground v.1.15,2013-04-30 01:51:00,
2013-04-29 21:52:00,55.5,25.3,30.26,WNW,286,4.0,25.0,31,0.00,,,0.00,Wunderground v.1.15,2013-04-30 01:52:00,
2013-04-29 21:56:00,55.4,26.0,30.26,West,275,4.0,25.0,32,0.00,,,0.00,Wunderground v.1.15,2013-04-30 01:56:00,
2013-04-29 21:57:00,55.3,25.9,30.26,WSW,242,4.0,25.0,32,0.00,,,0.00,Wunderground v.1.15,2013-04-30 01:57:00,
2013-04-29 21:58:00,55.3,25.9,30.26,WSW,256,4.0,25.0,32,0.00,,,0.00,Wunderground v.1.15,2013-04-30 01:58:00,
2013-04-29 22:02:00,55.2,26.6,30.26,West,274,4.0,25.0,33,0.00,,,0.00,Wunderground v.1.15,2013-04-30 02:02:00,
2013-04-29 22:03:00,55.2,26.6,30.26,West,279,4.0,25.0,33,0.00,,,0.00,Wunderground v.1.15,2013-04-30 02:03:00,
2013-04-29 22:04:00,55.2,26.6,30.26,WNW,300,3.0,25.0,33,0.00,,,0.00,Wunderground v.1.15,2013-04-30 02:04:00,
2013-04-29 22:07:00,55.1,26.5,30.26,West,269,3.0,25.0,33,0.00,,,0.00,Wunderground v.1.15,2013-04-30 02:07:00,
2013-04-29 22:08:00,55.1,26.5,30.26,West,269,2.0,25.0,33,0.00,,,0.00,Wunderground v.1.15,2013-04-30 02:08:00,
2013-04-29 22:09:00,55.1,26.5,30.27,West,269,2.0,25.0,33,0.00,,,0.00,Wunderground v.1.15,2013-04-30 02:09:00,
2013-04-29 22:10:00,55.1,26.5,30.27,West,269,1.0,1.0,33,0.00,,,0.00,Wunderground v.1.15,2013-04-30 02:10:00,
2013-04-29 22:13:00,55.0,26.4,30.27,WSW,250,1.0,25.0,33,0.00,,,0.00,Wunderground v.1.15,2013-04-30 02:13:00,
2013-04-29 22:15:00,55.0,27.1,30.27,WSW,250,1.0,25.0,34,0.00,,,0.00,Wunderground v.1.15,2013-04-30 02:15:00,
2013-04-29 22:16:00,55.0,27.8,30.27,WSW,250,1.0,25.0,35,0.00,,,0.00,Wunderground v.1.15,2013-04-30 02:16:00,
2013-04-29 22:17:00,55.0,27.1,30.27,WSW,250,1.0,25.0,34,0.00,,,0.00,Wunderground v.1.15,2013-04-30 02:17:00,
2013-04-29 22:18:00,54.9,28.4,30.27,NW,304,1.0,25.0,36,0.00,,,0.00,Wunderground v.1.15,2013-04-30 02:18:00,
2013-04-29 22:19:00,54.9,27.7,30.27,West,275,1.0,25.0,35,0.00,,,0.00,Wunderground v.1.15,2013-04-30 02:19:00,
2013-04-29 22:21:00,54.8,27.6,30.27,West,277,1.0,25.0,35,0.00,,,0.00,Wunderground v.1.15,2013-04-30 02:21:00,
2013-04-29 22:24:00,54.7,27.6,30.27,WSW,254,2.0,25.0,35,0.00,,,0.00,Wunderground v.1.15,2013-04-30 02:24:00,
2013-04-29 22:25:00,54.6,27.5,30.27,WNW,288,2.0,25.0,35,0.00,,,0.00,Wunderground v.1.15,2013-04-30 02:25:00,
2013-04-29 22:28:00,54.6,27.5,30.27,West,265,2.0,25.0,35,0.00,,,0.00,Wunderground v.1.15,2013-04-30 02:28:00,
2013-04-29 22:30:00,54.5,27.4,30.27,WNW,292,2.0,25.0,35,0.00,,,0.00,Wunderground v.1.15,2013-04-30 02:30:00,
2013-04-29 22:31:00,54.5,28.1,30.27,WSW,254,2.0,25.0,36,0.00,,,0.00,Wunderground v.1.15,2013-04-30 02:31:00,
2013-04-29 22:34:00,54.4,28.0,30.27,West,279,3.0,25.0,36,0.00,,,0.00,Wunderground v.1.15,2013-04-30 02:34:00,
2013-04-29 22:37:00,54.2,27.8,30.27,WNW,284,4.0,25.0,36,0.00,,,0.00,Wunderground v.1.15,2013-04-30 02:37:00,
2013-04-29 22:38:00,54.2,27.8,30.27,WNW,289,4.0,25.0,36,0.00,,,0.00,Wunderground v.1.15,2013-04-30 02:38:00,
2013-04-29 22:40:00,54.2,28.5,30.27,West,280,5.0,5.0,37,0.00,,,0.00,Wunderground v.1.15,2013-04-30 02:40:00,
2013-04-29 22:43:00,54.1,28.4,30.27,WNW,287,5.0,25.0,37,0.00,,,0.00,Wunderground v.1.15,2013-04-30 02:43:00,
2013-04-29 22:46:00,54.1,28.4,30.27,West,262,4.0,25.0,37,0.00,,,0.00,Wunderground v.1.15,2013-04-30 02:46:00,
2013-04-29 22:48:00,54.1,28.4,30.27,West,277,4.0,25.0,37,0.00,,,0.00,Wunderground v.1.15,2013-04-30 02:48:00,
2013-04-29 22:49:00,54.1,28.4,30.27,SW,234,4.0,25.0,37,0.00,,,0.00,Wunderground v.1.15,2013-04-30 02:49:00,
2013-04-29 22:52:00,54.1,28.4,30.27,WNW,296,3.0,25.0,37,0.00,,,0.00,Wunderground v.1.15,2013-04-30 02:52:00,
2013-04-29 22:54:00,54.0,28.9,30.27,West,276,3.0,25.0,38,0.00,,,0.00,Wunderground v.1.15,2013-04-30 02:54:00,
2013-04-29 22:56:00,54.0,28.9,30.27,West,273,4.0,25.0,38,0.00,,,0.00,Wunderground v.1.15,2013-04-30 02:56:00,
2013-04-29 22:59:00,53.9,28.8,30.27,West,272,3.0,25.0,38,0.00,,,0.00,Wunderground v.1.15,2013-04-30 02:59:00,
2013-04-29 23:00:00,53.9,28.8,30.27,West,274,3.0,25.0,38,0.00,,,0.00,Wunderground v.1.15,2013-04-30 03:00:00,
2013-04-29 23:03:00,53.9,29.5,30.27,West,274,2.0,25.0,39,0.00,,,0.00,Wunderground v.1.15,2013-04-30 03:03:00,
2013-04-29 23:05:00,53.9,29.5,30.27,West,271,1.0,25.0,39,0.00,,,0.00,Wunderground v.1.15,2013-04-30 03:05:00,
2013-04-29 23:06:00,53.9,29.5,30.27,West,261,1.0,25.0,39,0.00,,,0.00,Wunderground v.1.15,2013-04-30 03:06:00,
2013-04-29 23:10:00,53.8,29.4,30.27,West,267,1.0,25.0,39,0.00,,,0.00,Wunderground v.1.15,2013-04-30 03:10:00,
2013-04-29 23:11:00,53.8,29.4,30.27,West,279,2.0,25.0,39,0.00,,,0.00,Wunderground v.1.15,2013-04-30 03:11:00,
2013-04-29 23:12:00,53.8,29.4,30.27,West,279,2.0,25.0,39,0.00,,,0.00,Wunderground v.1.15,2013-04-30 03:12:00,
2013-04-29 23:14:00,53.7,29.9,30.27,West,279,2.0,25.0,40,0.00,,,0.00,Wunderground v.1.15,2013-04-30 03:14:00,
2013-04-29 23:16:00,53.7,29.9,30.27,West,277,2.0,25.0,40,0.00,,,0.00,Wunderground v.1.15,2013-04-30 03:16:00,